TimeCST,TemperatureF,Dew PointF,Humidity,Sea Level PressureIn,VisibilityMPH,Wind Direction,Wind SpeedMPH,Gust SpeedMPH,PrecipitationIn,Events,Conditions,WindDirDegrees,DateUTC
12:44 AM,42.8,33.8,70,30.10,10.0,Calm,Calm,-,N/A,,Mostly Cloudy,0,2013-01-08 06:44:00
12:53 AM,42.1,33.1,70,30.10,10.0,Calm,Calm,-,N/A,,Overcast,0,2013-01-08 06:53:00
1:14 AM,42.8,33.8,70,30.10,10.0,Calm,Calm,-,N/A,,Overcast,0,2013-01-08 07:14:00
1:53 AM,44.1,32.0,63,30.10,10.0,Calm,Calm,-,N/A,,Overcast,0,2013-01-08 07:53:00
2:53 AM,44.1,34.0,68,30.08,10.0,SE,4.6,-,N/A,,Overcast,140,2013-01-08 08:53:00
3:53 AM,45.0,33.1,63,30.07,10.0,SE,5.8,-,N/A,,Overcast,140,2013-01-08 09:53:00
4:53 AM,45.0,33.1,63,30.06,10.0,ESE,4.6,-,N/A,,Overcast,120,2013-01-08 10:53:00
6:53 AM,45.0,35.1,68,30.07,10.0,NE,5.8,-,0.00,,Overcast,50,2013-01-08 12:53:00
8:53 AM,46.9,37.0,68,30.09,10.0,ENE,4.6,-,N/A,,Overcast,70,2013-01-08 14:53:00
9:15 AM,46.4,37.4,71,30.11,10.0,East,3.5,-,0.00,Rain,Light Rain,100,2013-01-08 15:15:00
9:53 AM,46.0,37.9,73,30.11,10.0,ESE,6.9,-,0.00,,Overcast,110,2013-01-08 15:53:00
10:53 AM,45.0,42.1,90,30.10,4.0,ENE,3.5,-,0.03,Rain,Light Rain,70,2013-01-08 16:53:00
11:07 AM,46.4,42.8,87,30.09,5.0,NNE,4.6,-,0.00,Rain,Light Rain,30,2013-01-08 17:07:00
11:53 AM,46.0,44.1,93,30.05,4.0,NNE,10.4,-,0.00,Rain,Light Rain,30,2013-01-08 17:53:00
12:23 PM,46.4,44.6,93,30.03,4.0,NE,8.1,-,0.01,,Overcast,40,2013-01-08 18:23:00
12:49 PM,44.6,42.8,93,30.01,2.5,NE,9.2,-,0.03,Rain,Light Rain,40,2013-01-08 18:49:00
12:53 PM,45.0,44.1,97,30.01,4.0,NE,9.2,-,0.03,Rain,Light Rain,50,2013-01-08 18:53:00
1:03 PM,46.4,44.6,93,30.00,2.5,NE,9.2,-,0.02,Rain,Rain,50,2013-01-08 19:03:00
1:15 PM,44.6,44.6,100,30.00,1.8,NE,10.4,-,0.06,Rain,Rain,40,2013-01-08 19:15:00
1:24 PM,44.6,44.6,100,30.00,1.8,NNE,10.4,-,0.09,Rain,Light Rain,30,2013-01-08 19:24:00
1:28 PM,44.6,44.6,100,30.00,3.0,NNE,11.5,-,0.09,Rain,Light Rain,20,2013-01-08 19:28:00
1:53 PM,45.0,44.1,97,29.99,1.8,NE,8.1,-,0.13,Rain,Light Rain,40,2013-01-08 19:53:00
2:01 PM,46.4,44.6,93,30.00,2.5,NE,8.1,-,0.00,Rain,Light Rain,40,2013-01-08 20:01:00
2:20 PM,46.4,44.6,93,29.98,1.5,NNE,6.9,-,0.04,Rain,Light Rain,30,2013-01-08 20:20:00
2:32 PM,46.4,44.6,93,29.99,3.0,NE,9.2,-,0.05,Rain,Light Rain,50,2013-01-08 20:32:00
2:40 PM,46.4,44.6,93,29.99,2.0,NE,9.2,-,0.08,Rain,Rain,50,2013-01-08 20:40:00
2:53 PM,46.0,45.0,96,29.99,5.0,NE,9.2,-,0.08,Rain,Light Rain,40,2013-01-08 20:53:00
3:44 PM,46.4,44.6,93,29.99,3.0,NE,8.1,-,0.04,Rain,Light Rain,40,2013-01-08 21:44:00
3:48 PM,46.4,44.6,93,30.00,1.8,NE,10.4,-,0.08,Rain,Heavy Rain,50,2013-01-08 21:48:00
3:53 PM,46.0,45.0,96,30.01,1.5,NNE,6.9,-,0.09,Rain,Rain,30,2013-01-08 21:53:00
3:58 PM,46.4,44.6,93,30.01,2.0,NE,6.9,-,0.02,Rain,Rain,50,2013-01-08 21:58:00
4:06 PM,46.4,44.6,93,29.99,0.8,NE,11.5,-,0.19,Rain,Heavy Rain,50,2013-01-08 22:06:00
4:19 PM,46.4,44.6,93,29.99,2.0,NE,10.4,-,0.27,Rain,Light Rain,50,2013-01-08 22:19:00
4:28 PM,46.4,44.6,93,30.00,3.0,NE,11.5,-,0.30,Rain,Rain,40,2013-01-08 22:28:00
4:35 PM,46.4,44.6,93,29.99,2.5,NNE,10.4,-,0.32,Rain,Light Rain,30,2013-01-08 22:35:00
4:43 PM,46.4,44.6,93,30.00,5.0,NE,9.2,-,0.32,Rain,Light Rain,40,2013-01-08 22:43:00
4:53 PM,46.0,45.0,96,30.00,6.0,NE,10.4,-,0.32,Rain,Light Rain,40,2013-01-08 22:53:00
5:07 PM,46.4,44.6,93,30.01,8.0,NE,8.1,-,0.00,,Overcast,40,2013-01-08 23:07:00
5:26 PM,44.6,44.6,100,30.01,10.0,NE,10.4,-,0.00,,Overcast,50,2013-01-08 23:26:00
6:00 PM,44.6,44.6,100,30.02,1.8,NE,9.2,-,0.13,Rain,Heavy Rain,40,2013-01-09 00:00:00
6:26 PM,44.6,44.6,100,30.01,2.5,NNE,10.4,-,0.45,Rain,Rain,30,2013-01-09 00:26:00
6:28 PM,44.6,44.6,100,30.01,3.0,NNE,9.2,-,0.46,Rain,Rain,30,2013-01-09 00:28:00
6:36 PM,44.6,44.6,100,30.02,4.0,North,9.2,-,0.48,Rain,Rain,360,2013-01-09 00:36:00
6:53 PM,44.1,44.1,100,30.03,2.5,North,10.4,-,0.57,Rain,Heavy Rain,360,2013-01-09 00:53:00
7:04 PM,44.6,44.6,100,30.03,4.0,North,11.5,-,0.02,Rain,Rain,10,2013-01-09 01:04:00
7:53 PM,45.0,44.1,97,30.03,8.0,NNE,11.5,-,0.04,Rain,Light Rain,30,2013-01-09 01:53:00
8:11 PM,44.6,44.6,100,30.05,2.5,NNE,10.4,-,0.11,Rain,Heavy Rain,20,2013-01-09 02:11:00
8:26 PM,44.6,44.6,100,30.05,2.5,NNE,10.4,-,0.23,Rain,Heavy Rain,20,2013-01-09 02:26:00
8:34 PM,44.6,44.6,100,30.05,2.5,NNE,9.2,-,0.28,Rain,Heavy Rain,30,2013-01-09 02:34:00
8:39 PM,44.6,44.6,100,30.04,3.0,NNE,9.2,-,0.30,Rain,Heavy Rain,20,2013-01-09 02:39:00
8:53 PM,46.0,45.0,96,30.05,4.0,NNE,11.5,-,0.35,Rain,Rain,20,2013-01-09 02:53:00
9:38 PM,46.4,44.6,93,30.07,2.5,NNE,10.4,-,0.28,Rain,Heavy Rain,20,2013-01-09 03:38:00
9:41 PM,46.4,44.6,93,30.08,3.0,North,8.1,-,0.28,Rain,Rain,10,2013-01-09 03:41:00
9:53 PM,46.0,45.0,96,30.09,4.0,NE,12.7,-,0.32,Rain,Rain,40,2013-01-09 03:53:00
10:28 PM,46.4,44.6,93,30.10,4.0,North,9.2,-,0.16,Rain,Heavy Rain,10,2013-01-09 04:28:00
11:18 PM,46.4,44.6,93,30.10,5.0,NE,3.5,-,0.10,Rain,Heavy Rain,40,2013-01-09 05:18:00
11:34 PM,46.4,44.6,93,30.11,5.0,NNW,4.6,-,0.14,Rain,Rain,340,2013-01-09 05:34:00
11:46 PM,46.4,44.6,93,30.10,5.0,North,5.8,-,0.18,Rain,Rain,10,2013-01-09 05:46:00
11:53 PM,46.0,45.0,96,30.11,5.0,North,5.8,-,0.20,Rain,Rain,10,2013-01-09 05:53:00